RJA129 OJAI-EDDL

Flight info

Callsign RJA129
Flight time 4h 36m
Altitude 32000
Route MUVIN L53 SUVAS N128 TEZAK L324 SAFTA DCT TOMBI UA16 AYT UQ26 DIGBO/N0456F340 UL615 VADEN/N0446F280 L610 UTEKA/N0456F340 DCT TONDO DCT BEGLA DCT DITIS DCT RAPET DCT MASEK DCT AMETU T852 TINSA T854 DOMUX DOMUX1A
Aircraft A321/M-SDE3FGHIRWY/LB1

Departure

Time 2026-05-09 08:20
Airport Queen Alia International Airport (OJAI)

Arrival

Time 2026-05-09 12:57
Airport Düsseldorf Airport (EDDL)
Time Latitude Longitude Altitude Speed Heading
2026-05-09 08:05 31.72090 35.98945 2411 ft 0 kts 350°
2026-05-09 08:07 31.72083 35.98946 2411 ft 4 kts 350°
2026-05-09 08:07 31.72056 35.98951 2411 ft 4 kts 351°
2026-05-09 08:07 31.72033 35.98956 2411 ft 4 kts 354°
2026-05-09 08:07 31.72010 35.98951 2411 ft 4 kts 44°
2026-05-09 08:08 31.71996 35.98925 2411 ft 4 kts 75°
2026-05-09 08:08 31.71993 35.98911 2411 ft 1 kts 80°
2026-05-09 08:08 31.71993 35.98910 2411 ft 0 kts 80°
2026-05-09 08:10 31.71993 35.98909 2411 ft 1 kts 80°
2026-05-09 08:10 31.71991 35.98895 2411 ft 2 kts 80°
2026-05-09 08:10 31.71988 35.98874 2411 ft 2 kts 80°
2026-05-09 08:10 31.71988 35.98873 2411 ft 0 kts 80°
2026-05-09 08:12 31.71987 35.98875 2411 ft 1 kts 96°
2026-05-09 08:12 31.71974 35.98889 2411 ft 7 kts 142°
2026-05-09 08:12 31.71912 35.98908 2411 ft 9 kts 171°
2026-05-09 08:13 31.71857 35.98913 2411 ft 7 kts 193°
2026-05-09 08:13 31.71832 35.98878 2411 ft 5 kts 253°
2026-05-09 08:13 31.71826 35.98843 2411 ft 4 kts 260°
2026-05-09 08:13 31.71820 35.98802 2411 ft 6 kts 260°
2026-05-09 08:14 31.71813 35.98750 2411 ft 7 kts 261°
2026-05-09 08:14 31.71803 35.98684 2411 ft 9 kts 259°
2026-05-09 08:14 31.71789 35.98601 2411 ft 12 kts 261°
2026-05-09 08:14 31.71777 35.98509 2411 ft 11 kts 262°
2026-05-09 08:15 31.71766 35.98427 2411 ft 10 kts 260°
2026-05-09 08:15 31.71755 35.98349 2411 ft 10 kts 260°
2026-05-09 08:15 31.71741 35.98254 2411 ft 14 kts 260°
2026-05-09 08:15 31.71724 35.98132 2411 ft 16 kts 261°
2026-05-09 08:16 31.71704 35.98041 2411 ft 9 kts 227°
2026-05-09 08:16 31.71653 35.98027 2411 ft 7 kts 175°
2026-05-09 08:16 31.71612 35.98033 2411 ft 5 kts 171°
2026-05-09 08:16 31.71588 35.98038 2411 ft 0 kts 170°
2026-05-09 08:18 31.71583 35.98039 2411 ft 3 kts 170°
2026-05-09 08:18 31.71546 35.98046 2411 ft 8 kts 171°
2026-05-09 08:18 31.71478 35.98059 2411 ft 10 kts 171°
2026-05-09 08:19 31.71445 35.98112 2411 ft 8 kts 97°
2026-05-09 08:19 31.71448 35.98156 2411 ft 0 kts 78°
2026-05-09 08:19 31.71451 35.98171 2411 ft 11 kts 78°
2026-05-09 08:19 31.71498 35.98493 2411 ft 71 kts 81°
2026-05-09 08:20 31.71609 35.99290 2412 ft 123 kts 83°
2026-05-09 08:20 31.71781 36.00476 2412 ft 170 kts 82°
2026-05-09 08:20 31.71990 36.01920 2773 ft 177 kts 83°
2026-05-09 08:20 31.72198 36.03352 3369 ft 171 kts 85°
2026-05-09 08:21 31.72410 36.04718 3748 ft 173 kts 83°
2026-05-09 08:21 31.72616 36.06182 3811 ft 189 kts 84°
2026-05-09 08:21 31.72863 36.07759 3967 ft 204 kts 78°
2026-05-09 08:21 31.73504 36.09312 4122 ft 222 kts 56°
2026-05-09 08:22 31.74731 36.10526 4200 ft 244 kts 28°
2026-05-09 08:22 31.76420 36.11098 4373 ft 263 kts
2026-05-09 08:22 31.77641 36.11181 4699 ft 266 kts
2026-05-09 08:22 31.79521 36.11232 5317 ft 267 kts
2026-05-09 08:23 31.81369 36.11338 5956 ft 266 kts
2026-05-09 08:23 31.83272 36.11522 6598 ft 266 kts
2026-05-09 08:23 31.85123 36.11714 7143 ft 269 kts
2026-05-09 08:23 31.87008 36.11704 7614 ft 274 kts 348°
2026-05-09 08:24 31.88724 36.10727 8034 ft 280 kts 318°
2026-05-09 08:24 31.89855 36.08834 8292 ft 291 kts 288°
2026-05-09 08:24 31.90202 36.06478 8734 ft 294 kts 273°
2026-05-09 08:24 31.90338 36.04065 9224 ft 297 kts 274°
2026-05-09 08:25 31.90570 36.01642 9764 ft 299 kts 278°
2026-05-09 08:25 31.90942 35.99232 10309 ft 301 kts 280°
2026-05-09 08:25 31.91385 35.96800 10724 ft 307 kts 280°
2026-05-09 08:25 31.91571 35.94302 11212 ft 309 kts 266°
2026-05-09 08:26 31.91391 35.91719 11568 ft 319 kts 262°
2026-05-09 08:26 31.91089 35.89077 11739 ft 334 kts 261°
2026-05-09 08:26 31.90745 35.86311 11894 ft 349 kts 261°
2026-05-09 08:26 31.90409 35.83422 12057 ft 363 kts 262°
2026-05-09 08:27 31.90089 35.80373 12219 ft 377 kts 262°
2026-05-09 08:27 31.89787 35.77260 12459 ft 386 kts 263°
2026-05-09 08:27 31.89447 35.74111 12898 ft 389 kts 259°
2026-05-09 08:27 31.88681 35.71060 13334 ft 391 kts 248°
2026-05-09 08:28 31.87482 35.68066 13780 ft 395 kts 244°
2026-05-09 08:28 31.86203 35.65181 14124 ft 398 kts 243°
2026-05-09 08:28 31.84907 35.62304 14142 ft 398 kts 243°
2026-05-09 08:28 31.83641 35.59407 14138 ft 398 kts 245°
2026-05-09 08:29 31.82677 35.56323 14125 ft 396 kts 256°
2026-05-09 08:29 31.82332 35.53150 14119 ft 397 kts 270°
2026-05-09 08:29 31.82648 35.49938 14120 ft 398 kts 283°
2026-05-09 08:29 31.83559 35.46861 14131 ft 399 kts 290°
2026-05-09 08:30 31.84567 35.43826 14129 ft 399 kts 290°
2026-05-09 08:30 31.85561 35.40783 14224 ft 398 kts 289°
2026-05-09 08:30 31.86525 35.37669 14628 ft 401 kts 289°
2026-05-09 08:30 31.87430 35.34594 15068 ft 403 kts 288°
2026-05-09 08:31 31.88348 35.31432 15564 ft 403 kts 288°
2026-05-09 08:31 31.89254 35.28340 16319 ft 396 kts 289°
2026-05-09 08:31 31.90159 35.25307 17021 ft 391 kts 289°
2026-05-09 08:31 31.91080 35.22242 17441 ft 394 kts 289°
2026-05-09 08:32 31.92005 35.19136 17790 ft 398 kts 289°
2026-05-09 08:32 31.92913 35.16054 18183 ft 400 kts 289°
2026-05-09 08:32 31.94742 35.09825 18931 ft 405 kts 289°
2026-05-09 08:33 31.95671 35.06687 19305 ft 406 kts 289°
2026-05-09 08:33 31.96604 35.03538 19661 ft 409 kts 289°
2026-05-09 08:33 31.97542 35.00367 20000 ft 411 kts 289°
2026-05-09 08:33 31.98482 34.97174 20333 ft 413 kts 289°
2026-05-09 08:34 31.99436 34.93925 20667 ft 415 kts 289°
2026-05-09 08:34 32.00369 34.90744 20990 ft 417 kts 289°
2026-05-09 08:34 32.01194 34.87415 21328 ft 418 kts 282°
2026-05-09 08:34 32.01586 34.84020 21665 ft 420 kts 275°
2026-05-09 08:35 32.01788 34.80579 21968 ft 422 kts 274°
2026-05-09 08:35 32.01933 34.77023 22268 ft 424 kts 273°
2026-05-09 08:35 32.02075 34.73549 22551 ft 426 kts 273°
2026-05-09 08:35 32.02250 34.70038 22834 ft 427 kts 274°
2026-05-09 08:36 32.02451 34.66602 23120 ft 429 kts 274°
2026-05-09 08:36 32.02667 34.63053 23385 ft 430 kts 274°
2026-05-09 08:36 32.02870 34.59520 23645 ft 432 kts 274°
2026-05-09 08:36 32.03060 34.55977 23915 ft 433 kts 274°
2026-05-09 08:37 32.03244 34.52426 24162 ft 435 kts 274°
2026-05-09 08:37 32.03430 34.48863 24414 ft 436 kts 274°
2026-05-09 08:37 32.03631 34.45293 24654 ft 438 kts 274°
2026-05-09 08:37 32.03844 34.41663 24906 ft 439 kts 274°
2026-05-09 08:38 32.03983 34.39281 25066 ft 440 kts 274°
2026-05-09 08:38 32.04188 34.35685 25315 ft 441 kts 274°
2026-05-09 08:38 32.04386 34.32075 25548 ft 442 kts 274°
2026-05-09 08:38 32.04582 34.28460 25777 ft 442 kts 274°
2026-05-09 08:39 32.04945 34.24860 26071 ft 441 kts 281°
2026-05-09 08:39 32.05789 34.21387 26384 ft 440 kts 290°
2026-05-09 08:39 32.07147 34.18053 26661 ft 440 kts 300°
2026-05-09 08:39 32.09018 34.15207 26944 ft 441 kts 313°
2026-05-09 08:40 32.11422 34.12923 27251 ft 443 kts 322°
2026-05-09 08:40 32.14026 34.10902 27547 ft 442 kts 324°
2026-05-09 08:40 32.16624 34.08963 27824 ft 441 kts 324°
2026-05-09 08:40 32.19200 34.07008 28121 ft 439 kts 324°
2026-05-09 08:41 32.21734 34.05005 28399 ft 437 kts 323°
2026-05-09 08:41 32.24265 34.02945 28673 ft 435 kts 322°
2026-05-09 08:41 32.26749 34.00915 28947 ft 434 kts 322°
2026-05-09 08:41 32.29383 33.98790 29222 ft 432 kts 323°
2026-05-09 08:42 32.31873 33.96807 29470 ft 431 kts 323°
2026-05-09 08:42 32.34361 33.94833 29731 ft 430 kts 323°
2026-05-09 08:42 32.36834 33.92861 30001 ft 427 kts 323°
2026-05-09 08:43 32.41729 33.88927 30080 ft 427 kts 322°
2026-05-09 08:43 32.46022 33.85474 30073 ft 427 kts 322°
2026-05-09 08:44 32.50975 33.81496 30071 ft 427 kts 322°
2026-05-09 08:44 32.55929 33.77510 30071 ft 428 kts 322°
2026-05-09 08:45 32.60864 33.73530 30049 ft 424 kts 322°
2026-05-09 08:45 32.65697 33.69629 30024 ft 422 kts 322°
2026-05-09 08:46 32.70574 33.65685 30021 ft 422 kts 322°
2026-05-09 08:46 32.75427 33.61758 30025 ft 422 kts 322°
2026-05-09 08:47 32.80287 33.57817 30024 ft 423 kts 322°
2026-05-09 08:47 32.85158 33.53865 30034 ft 424 kts 322°
2026-05-09 08:48 32.90047 33.49891 30030 ft 426 kts 322°
2026-05-09 08:48 32.94950 33.45899 30057 ft 427 kts 322°
2026-05-09 08:49 32.99862 33.41899 30113 ft 427 kts 322°
2026-05-09 08:49 33.04763 33.37899 30125 ft 427 kts 322°
2026-05-09 08:50 33.09680 33.33884 30124 ft 425 kts 322°
2026-05-09 08:50 33.14539 33.29905 30098 ft 422 kts 322°
2026-05-09 08:51 33.19384 33.25937 30054 ft 421 kts 322°
2026-05-09 08:51 33.24210 33.21976 30038 ft 420 kts 322°
2026-05-09 08:52 33.29026 33.18018 30035 ft 420 kts 322°
2026-05-09 08:52 33.33834 33.14064 30037 ft 421 kts 322°
2026-05-09 08:53 33.38693 33.10057 30038 ft 422 kts 322°
2026-05-09 08:53 33.43538 33.06061 30037 ft 424 kts 321°
2026-05-09 08:54 33.47616 33.02692 30066 ft 425 kts 321°
2026-05-09 08:54 33.52483 32.98669 30126 ft 425 kts 321°
2026-05-09 08:55 33.57160 32.94794 30138 ft 425 kts 321°
2026-05-09 08:55 33.62021 32.90763 30133 ft 424 kts 321°
2026-05-09 08:56 33.66865 32.86742 30133 ft 422 kts 321°
2026-05-09 08:56 33.71685 32.82731 30094 ft 421 kts 321°
2026-05-09 08:57 33.76493 32.78727 30051 ft 420 kts 321°
2026-05-09 08:57 33.81292 32.74725 30049 ft 420 kts 321°
2026-05-09 08:58 33.86064 32.70739 30048 ft 420 kts 321°
2026-05-09 08:58 33.90868 32.66720 30052 ft 421 kts 321°
2026-05-09 08:59 33.95691 32.62678 30061 ft 423 kts 321°
2026-05-09 08:59 34.00530 32.58624 30110 ft 423 kts 321°
2026-05-09 09:00 34.05359 32.54567 30138 ft 423 kts 321°
2026-05-09 09:00 34.10182 32.50508 30143 ft 422 kts 321°
2026-05-09 09:01 34.15125 32.46346 30131 ft 422 kts 321°
2026-05-09 09:01 34.19939 32.42286 30116 ft 421 kts 321°
2026-05-09 09:02 34.24739 32.38230 30079 ft 421 kts 321°
2026-05-09 09:02 34.29536 32.34175 30068 ft 421 kts 321°
2026-05-09 09:03 34.34338 32.30103 30071 ft 421 kts 320°
2026-05-09 09:03 34.39166 32.26005 30077 ft 421 kts 321°
2026-05-09 09:04 34.43969 32.21929 30096 ft 421 kts 321°
2026-05-09 09:04 34.48764 32.17851 30095 ft 422 kts 321°
2026-05-09 09:05 34.53570 32.13754 30077 ft 422 kts 321°
2026-05-09 09:05 34.58376 32.09656 30132 ft 421 kts 321°
2026-05-09 09:06 34.63172 32.05556 30149 ft 421 kts 321°
2026-05-09 09:06 34.67964 32.01458 30149 ft 421 kts 321°
2026-05-09 09:07 34.72759 31.97350 30130 ft 421 kts 321°
2026-05-09 09:07 34.77394 31.93370 30116 ft 421 kts 320°
2026-05-09 09:08 34.82151 31.89281 30128 ft 420 kts 321°
2026-05-09 09:08 34.86986 31.85122 30102 ft 420 kts 321°
2026-05-09 09:09 34.91774 31.80995 30069 ft 421 kts 321°
2026-05-09 09:09 34.96594 31.76834 30077 ft 421 kts 321°
2026-05-09 09:10 35.01373 31.72705 30118 ft 421 kts 321°
2026-05-09 09:10 35.06147 31.68570 30118 ft 421 kts 321°
2026-05-09 09:11 35.10930 31.64421 30089 ft 422 kts 321°
2026-05-09 09:11 35.15683 31.60300 30128 ft 421 kts 321°
2026-05-09 09:12 35.20457 31.56150 30128 ft 421 kts 321°
2026-05-09 09:12 35.25230 31.51992 30147 ft 421 kts 321°
2026-05-09 09:13 35.29992 31.47839 30149 ft 421 kts 321°
2026-05-09 09:13 35.34801 31.43639 30153 ft 421 kts 321°
2026-05-09 09:14 35.39562 31.39475 30156 ft 420 kts 321°
2026-05-09 09:14 35.44322 31.35305 30158 ft 420 kts 321°
2026-05-09 09:15 35.49057 31.31153 30163 ft 420 kts 321°
2026-05-09 09:15 35.53807 31.26977 30151 ft 420 kts 321°
2026-05-09 09:16 35.58556 31.22802 30138 ft 420 kts 321°
2026-05-09 09:16 35.65676 31.16523 30139 ft 419 kts 321°
2026-05-09 09:17 35.70415 31.12339 30111 ft 419 kts 321°
2026-05-09 09:17 35.74355 31.08858 30122 ft 419 kts 320°
2026-05-09 09:18 35.79114 31.04644 30126 ft 418 kts 320°
2026-05-09 09:18 35.83834 31.00455 30084 ft 419 kts 320°
2026-05-09 09:19 35.88506 30.96302 30067 ft 419 kts 320°
2026-05-09 09:19 35.93269 30.92069 30073 ft 418 kts 320°
2026-05-09 09:20 35.98022 30.87838 30094 ft 418 kts 320°
2026-05-09 09:20 36.02962 30.83930 30079 ft 424 kts 330°
2026-05-09 09:21 36.08812 30.82125 30044 ft 442 kts 351°
2026-05-09 09:21 36.15012 30.82033 30051 ft 447 kts 354°
2026-05-09 09:22 36.21239 30.81940 30050 ft 447 kts 352°
2026-05-09 09:22 36.27456 30.81665 30099 ft 447 kts 352°
2026-05-09 09:23 36.33668 30.81440 30144 ft 447 kts 352°
2026-05-09 09:23 36.39892 30.81259 30136 ft 446 kts 352°
2026-05-09 09:24 36.46092 30.81047 30133 ft 445 kts 352°
2026-05-09 09:24 36.52296 30.80824 30097 ft 446 kts 352°
2026-05-09 09:25 36.58501 30.80612 30056 ft 446 kts 352°
2026-05-09 09:25 36.64712 30.80400 30048 ft 445 kts 352°
2026-05-09 09:26 36.70891 30.80184 30059 ft 444 kts 352°
2026-05-09 09:26 36.77077 30.79971 30045 ft 444 kts 352°
2026-05-09 09:27 36.83266 30.79757 30041 ft 444 kts 352°
2026-05-09 09:27 36.89452 30.79542 30038 ft 445 kts 352°
2026-05-09 09:28 36.95658 30.79480 30055 ft 446 kts 354°
2026-05-09 09:28 37.01873 30.79570 30068 ft 446 kts 354°
2026-05-09 09:29 37.08123 30.79661 30080 ft 446 kts 354°
2026-05-09 09:29 37.14365 30.79737 30108 ft 446 kts 354°
2026-05-09 09:30 37.20502 30.79814 30110 ft 446 kts 354°
2026-05-09 09:30 37.26726 30.79895 30118 ft 446 kts 354°
2026-05-09 09:31 37.32939 30.79976 30124 ft 446 kts 354°
2026-05-09 09:32 37.42253 30.80096 30134 ft 446 kts 354°
2026-05-09 09:32 37.48451 30.80177 30141 ft 446 kts 354°
2026-05-09 09:33 37.54671 30.80258 30146 ft 446 kts 354°
2026-05-09 09:33 37.59865 30.80325 30150 ft 446 kts 354°
2026-05-09 09:34 37.65239 30.80395 30154 ft 446 kts 354°
2026-05-09 09:36 37.89992 30.80717 30177 ft 445 kts 354°
2026-05-09 09:37 37.96195 30.80798 30166 ft 445 kts 354°
2026-05-09 09:37 38.02382 30.80881 30179 ft 445 kts 354°
2026-05-09 09:38 38.08604 30.80961 30213 ft 444 kts 354°
2026-05-09 09:38 38.14740 30.80755 30242 ft 437 kts 348°
2026-05-09 09:39 38.20767 30.79778 30204 ft 436 kts 346°
2026-05-09 09:39 38.26784 30.78717 30216 ft 438 kts 346°
2026-05-09 09:39 38.29806 30.78220 30455 ft 437 kts 347°
2026-05-09 09:40 38.32823 30.77739 30666 ft 437 kts 347°
2026-05-09 09:40 38.35849 30.77253 30841 ft 438 kts 347°
2026-05-09 09:40 38.38527 30.76812 31022 ft 437 kts 347°
2026-05-09 09:40 38.41536 30.76308 31205 ft 437 kts 346°
2026-05-09 09:41 38.44559 30.75800 31398 ft 437 kts 346°
2026-05-09 09:41 38.47580 30.75298 31580 ft 437 kts 346°
2026-05-09 09:41 38.50612 30.74796 31740 ft 437 kts 346°
2026-05-09 09:41 38.53608 30.74300 31924 ft 437 kts 346°
2026-05-09 09:42 38.56625 30.73800 32104 ft 437 kts 346°
2026-05-09 09:42 38.61655 30.72962 32181 ft 436 kts 346°
2026-05-09 09:43 38.67689 30.71954 32181 ft 437 kts 347°
2026-05-09 09:43 38.73715 30.70951 32184 ft 437 kts 347°
2026-05-09 09:44 38.78729 30.70112 32185 ft 437 kts 347°
2026-05-09 09:44 38.84712 30.68915 32169 ft 432 kts 340°
2026-05-09 09:45 38.90154 30.65978 32195 ft 421 kts 328°
2026-05-09 09:45 38.95321 30.62441 32155 ft 422 kts 327°
2026-05-09 09:46 39.00597 30.58965 32134 ft 423 kts 329°
2026-05-09 09:46 39.05843 30.55602 32130 ft 424 kts 328°
2026-05-09 09:47 39.11122 30.52142 32143 ft 424 kts 328°
2026-05-09 09:47 39.16369 30.48692 32160 ft 424 kts 328°
2026-05-09 09:48 39.21641 30.45237 32216 ft 424 kts 328°
2026-05-09 09:48 39.26907 30.41781 32213 ft 424 kts 328°
2026-05-09 09:49 39.32130 30.38346 32206 ft 423 kts 328°
2026-05-09 09:49 39.37401 30.34866 32164 ft 424 kts 328°
2026-05-09 09:50 39.42655 30.31398 32130 ft 424 kts 328°
2026-05-09 09:50 39.47914 30.27922 32121 ft 424 kts 329°
2026-05-09 09:51 39.53345 30.24735 32128 ft 427 kts 333°
2026-05-09 09:51 39.58868 30.21824 32128 ft 428 kts 333°
2026-05-09 09:52 39.64382 30.18900 32179 ft 428 kts 333°
2026-05-09 09:52 39.69146 30.16341 32212 ft 427 kts 333°
2026-05-09 09:53 39.74726 30.13350 32207 ft 427 kts 333°
2026-05-09 09:53 39.80227 30.10403 32200 ft 427 kts 333°
2026-05-09 09:54 39.85726 30.07448 32175 ft 427 kts 333°
2026-05-09 09:54 39.91294 30.04447 32145 ft 427 kts 333°
2026-05-09 09:55 39.96786 30.01485 32122 ft 427 kts 333°
2026-05-09 09:55 40.02274 29.98521 32106 ft 427 kts 333°
2026-05-09 09:56 40.07794 29.95536 32128 ft 426 kts 333°
2026-05-09 09:56 40.13314 29.92544 32091 ft 426 kts 333°
2026-05-09 09:57 40.18795 29.89568 32050 ft 427 kts 333°
2026-05-09 09:57 40.24292 29.86578 32052 ft 427 kts 333°
2026-05-09 09:58 40.29788 29.83584 32042 ft 428 kts 333°
2026-05-09 09:58 40.35345 29.80551 32043 ft 429 kts 333°
2026-05-09 09:59 40.40939 29.77493 32041 ft 431 kts 333°
2026-05-09 09:59 40.45578 29.74949 32072 ft 431 kts 333°
2026-05-09 10:00 40.51115 29.71907 32066 ft 432 kts 333°
2026-05-09 10:00 40.56707 29.68840 32038 ft 433 kts 333°
2026-05-09 10:01 40.62280 29.65775 32037 ft 434 kts 333°
2026-05-09 10:01 40.67682 29.62091 32030 ft 429 kts 321°
2026-05-09 10:02 40.72397 29.57163 32023 ft 429 kts 317°
2026-05-09 10:02 40.77043 29.52114 32017 ft 431 kts 319°
2026-05-09 10:03 40.81747 29.47181 32012 ft 432 kts 319°
2026-05-09 10:03 40.86623 29.42066 32036 ft 433 kts 319°
2026-05-09 10:04 40.91311 29.37073 32024 ft 434 kts 319°
2026-05-09 10:04 40.96071 29.32021 32018 ft 435 kts 319°
2026-05-09 10:05 41.00844 29.26949 32047 ft 435 kts 319°
2026-05-09 10:05 41.05590 29.21891 32008 ft 437 kts 319°
2026-05-09 10:06 41.10325 29.16832 32024 ft 437 kts 319°
2026-05-09 10:06 41.14445 29.10998 32030 ft 433 kts 303°
2026-05-09 10:07 41.17773 29.04272 32008 ft 434 kts 301°
2026-05-09 10:07 41.21048 28.97539 32053 ft 433 kts 302°
2026-05-09 10:08 41.24430 28.90854 32064 ft 434 kts 302°
2026-05-09 10:08 41.27803 28.84122 32099 ft 433 kts 302°
2026-05-09 10:09 41.31089 28.77457 32102 ft 433 kts 302°
2026-05-09 10:09 41.34410 28.70760 32096 ft 433 kts 302°
2026-05-09 10:10 41.37196 28.65147 32099 ft 433 kts 302°
2026-05-09 10:10 41.40539 28.58389 32089 ft 433 kts 302°
2026-05-09 10:11 41.43846 28.51671 32068 ft 433 kts 302°
2026-05-09 10:11 41.47144 28.44976 32026 ft 434 kts 302°
2026-05-09 10:12 41.50437 28.38251 32010 ft 434 kts 302°
2026-05-09 10:12 41.53740 28.31510 32008 ft 434 kts 302°
2026-05-09 10:13 41.57070 28.24711 32005 ft 435 kts 302°
2026-05-09 10:13 41.60364 28.17950 32029 ft 435 kts 302°
2026-05-09 10:14 41.63672 28.11143 32086 ft 434 kts 302°
2026-05-09 10:14 41.66966 28.04363 32092 ft 434 kts 302°
2026-05-09 10:15 41.70228 27.97641 32086 ft 434 kts 302°
2026-05-09 10:15 41.73506 27.90852 32093 ft 434 kts 302°
2026-05-09 10:16 41.76803 27.84015 32060 ft 433 kts 302°
2026-05-09 10:16 41.80073 27.77222 32017 ft 433 kts 302°
2026-05-09 10:17 41.83335 27.70429 31994 ft 433 kts 301°
2026-05-09 10:17 41.86609 27.63586 31988 ft 433 kts 301°
2026-05-09 10:18 41.89892 27.56722 31990 ft 434 kts 301°
2026-05-09 10:18 41.93149 27.49894 31991 ft 435 kts 301°
2026-05-09 10:19 41.96426 27.42997 32044 ft 435 kts 301°
2026-05-09 10:19 41.99704 27.36107 32070 ft 434 kts 301°
2026-05-09 10:20 42.02964 27.29226 32069 ft 432 kts 301°
2026-05-09 10:20 42.06181 27.22394 32034 ft 431 kts 301°
2026-05-09 10:21 42.09154 27.15408 31993 ft 429 kts 298°
2026-05-09 10:21 42.12072 27.08319 32007 ft 436 kts 298°
2026-05-09 10:22 42.15023 27.01167 32005 ft 437 kts 298°
2026-05-09 10:22 42.17986 26.94009 32006 ft 435 kts 298°
2026-05-09 10:23 42.20921 26.86866 32011 ft 435 kts 298°
2026-05-09 10:23 42.23852 26.79712 32013 ft 435 kts 298°
2026-05-09 10:24 42.26824 26.72473 32034 ft 434 kts 298°
2026-05-09 10:24 42.29716 26.65388 32034 ft 433 kts 298°
2026-05-09 10:25 42.32638 26.58213 32035 ft 432 kts 298°
2026-05-09 10:25 42.35554 26.51039 32035 ft 432 kts 297°
2026-05-09 10:26 42.38446 26.43914 32011 ft 431 kts 297°
2026-05-09 10:26 42.41339 26.36753 31976 ft 431 kts 297°
2026-05-09 10:27 42.44215 26.29626 31963 ft 431 kts 297°
2026-05-09 10:27 42.46630 26.23619 31966 ft 430 kts 297°
2026-05-09 10:28 42.49491 26.16492 31955 ft 430 kts 297°
2026-05-09 10:28 42.52354 26.09354 31954 ft 430 kts 297°
2026-05-09 10:29 42.55207 26.02206 31952 ft 431 kts 297°
2026-05-09 10:29 42.58085 25.95004 31954 ft 432 kts 297°
2026-05-09 10:30 42.60937 25.87826 31995 ft 431 kts 297°
2026-05-09 10:30 42.63785 25.80647 31996 ft 432 kts 297°
2026-05-09 10:31 42.66635 25.73450 31958 ft 433 kts 297°
2026-05-09 10:31 42.69482 25.66231 31960 ft 434 kts 297°
2026-05-09 10:32 42.72340 25.58969 31958 ft 434 kts 297°
2026-05-09 10:32 42.75225 25.51639 31962 ft 435 kts 297°
2026-05-09 10:33 42.78072 25.44353 31959 ft 436 kts 297°
2026-05-09 10:33 42.80958 25.36971 31966 ft 437 kts 297°
2026-05-09 10:34 42.83800 25.29678 31975 ft 438 kts 297°
2026-05-09 10:34 42.88087 25.18652 31999 ft 439 kts 297°
2026-05-09 10:35 42.90941 25.11268 31995 ft 439 kts 296°
2026-05-09 10:35 42.93787 25.03898 32020 ft 439 kts 296°
2026-05-09 10:36 42.96630 24.96527 32025 ft 439 kts 296°
2026-05-09 10:36 42.99475 24.89131 32007 ft 440 kts 296°
2026-05-09 10:37 43.02309 24.81714 31973 ft 441 kts 296°
2026-05-09 10:37 43.05229 24.74077 32016 ft 440 kts 296°
2026-05-09 10:38 43.07992 24.66841 32048 ft 439 kts 296°
2026-05-09 10:38 43.10579 24.60045 32012 ft 440 kts 296°
2026-05-09 10:39 43.13401 24.52603 32018 ft 440 kts 296°
2026-05-09 10:39 43.16226 24.45123 32044 ft 439 kts 296°
2026-05-09 10:40 43.19039 24.37686 32003 ft 439 kts 296°
2026-05-09 10:40 43.21832 24.30234 31996 ft 439 kts 296°
2026-05-09 10:41 43.24651 24.22729 32001 ft 440 kts 296°
2026-05-09 10:41 43.27457 24.15256 32001 ft 440 kts 296°
2026-05-09 10:42 43.30263 24.07729 32021 ft 440 kts 295°
2026-05-09 10:42 43.33056 24.00219 32023 ft 440 kts 296°
2026-05-09 10:43 43.35863 23.92679 32059 ft 440 kts 296°
2026-05-09 10:43 43.38636 23.85190 32093 ft 439 kts 295°
2026-05-09 10:44 43.40963 23.78865 32095 ft 438 kts 295°
2026-05-09 10:44 43.43737 23.71351 32069 ft 438 kts 295°
2026-05-09 10:46 43.50581 23.52679 32009 ft 438 kts 295°
2026-05-09 10:46 43.53341 23.45139 32010 ft 438 kts 295°
2026-05-09 10:47 43.56075 23.37632 32042 ft 438 kts 295°
2026-05-09 10:47 43.58816 23.30073 32092 ft 437 kts 295°
2026-05-09 10:48 43.61551 23.22522 32108 ft 436 kts 295°
2026-05-09 10:48 43.64258 23.15018 32106 ft 435 kts 295°
2026-05-09 10:49 43.66970 23.07493 32087 ft 434 kts 295°
2026-05-09 10:49 43.69676 22.99960 32046 ft 434 kts 295°
2026-05-09 10:50 43.72356 22.92476 32026 ft 434 kts 295°
2026-05-09 10:50 43.75025 22.85002 32023 ft 433 kts 295°
2026-05-09 10:51 43.77638 22.77644 32042 ft 432 kts 295°
2026-05-09 10:51 43.80317 22.70147 32071 ft 431 kts 295°
2026-05-09 10:52 43.82946 22.62714 32101 ft 429 kts 295°
2026-05-09 10:52 43.85566 22.55282 32080 ft 429 kts 294°
2026-05-09 10:53 43.88204 22.47798 32067 ft 429 kts 295°
2026-05-09 10:53 43.90922 22.40452 32090 ft 428 kts 300°
2026-05-09 10:54 43.94846 22.34134 32075 ft 431 kts 313°
2026-05-09 10:54 43.99234 22.28412 32038 ft 432 kts 314°
2026-05-09 10:55 44.03562 22.22636 32025 ft 432 kts 313°
2026-05-09 10:55 44.07831 22.16765 32048 ft 431 kts 313°
2026-05-09 10:56 44.12136 22.10920 32025 ft 433 kts 313°
2026-05-09 10:56 44.16456 22.05074 32061 ft 432 kts 313°
2026-05-09 10:57 44.20836 21.99096 32116 ft 431 kts 313°
2026-05-09 10:57 44.25407 21.93554 32096 ft 435 kts 324°
2026-05-09 10:58 44.29925 21.90290 32075 ft 438 kts 333°
2026-05-09 10:58 44.35568 21.86995 32037 ft 439 kts 334°
2026-05-09 10:59 44.41336 21.83959 32023 ft 442 kts 341°
2026-05-09 10:59 44.47497 21.83041 32044 ft 451 kts 359°
2026-05-09 11:00 44.53775 21.83924 32024 ft 456 kts
2026-05-09 11:00 44.60084 21.84817 32025 ft 453 kts 355°
2026-05-09 11:01 44.66126 21.82995 32036 ft 441 kts 331°
2026-05-09 11:01 44.68695 21.80629 32028 ft 435 kts 315°
2026-05-09 11:01 44.70724 21.77507 32049 ft 432 kts 306°
2026-05-09 11:02 44.74398 21.70784 32025 ft 435 kts 305°
2026-05-09 11:02 44.78229 21.64027 32061 ft 437 kts 307°
2026-05-09 11:03 44.82116 21.57413 32109 ft 437 kts 307°
2026-05-09 11:03 44.85938 21.50752 32103 ft 435 kts 306°
2026-05-09 11:04 44.89696 21.44145 32096 ft 434 kts 307°
2026-05-09 11:04 44.93490 21.37530 32053 ft 432 kts 307°
2026-05-09 11:05 44.97282 21.30877 32012 ft 432 kts 307°
2026-05-09 11:05 45.01079 21.24200 32011 ft 432 kts 307°
2026-05-09 11:06 45.04870 21.17520 32012 ft 434 kts 307°
2026-05-09 11:06 45.08645 21.10845 32012 ft 435 kts 306°
2026-05-09 11:07 45.12439 21.04128 32016 ft 437 kts 306°
2026-05-09 11:07 45.16262 20.97344 32062 ft 438 kts 306°
2026-05-09 11:08 45.20054 20.90602 32113 ft 437 kts 306°
2026-05-09 11:08 45.23859 20.83811 32113 ft 435 kts 306°
2026-05-09 11:09 45.27621 20.77086 32109 ft 433 kts 306°
2026-05-09 11:09 45.31387 20.70338 32071 ft 432 kts 306°
2026-05-09 11:10 45.35101 20.63664 32036 ft 430 kts 306°
2026-05-09 11:10 45.38810 20.56993 32029 ft 430 kts 306°
2026-05-09 11:11 45.42518 20.50299 32034 ft 429 kts 306°
2026-05-09 11:11 45.46213 20.43607 32032 ft 430 kts 306°
2026-05-09 11:12 45.49906 20.36906 32035 ft 431 kts 306°
2026-05-09 11:12 45.53614 20.30166 32033 ft 433 kts 306°
2026-05-09 11:13 45.57316 20.23420 32064 ft 433 kts 306°
2026-05-09 11:13 45.61072 20.16567 32128 ft 432 kts 306°
2026-05-09 11:14 45.64768 20.09794 32124 ft 432 kts 306°
2026-05-09 11:14 45.68461 20.03028 32116 ft 431 kts 306°
2026-05-09 11:15 45.72138 19.96272 32101 ft 430 kts 306°
2026-05-09 11:15 45.75798 19.89500 32035 ft 429 kts 306°
2026-05-09 11:16 45.79455 19.82737 32038 ft 429 kts 305°
2026-05-09 11:16 45.81961 19.76541 32054 ft 424 kts 291°
2026-05-09 11:17 45.83696 19.68515 32037 ft 424 kts 279°
2026-05-09 11:17 45.84491 19.60089 32061 ft 424 kts 276°
2026-05-09 11:18 45.85064 19.51667 32092 ft 425 kts 275°
2026-05-09 11:18 45.85598 19.43165 32144 ft 424 kts 275°
2026-05-09 11:19 45.86115 19.34622 32138 ft 423 kts 275°
2026-05-09 11:19 45.86612 19.26261 32136 ft 421 kts 275°
2026-05-09 11:20 45.87094 19.18035 32133 ft 419 kts 275°
2026-05-09 11:20 45.87837 19.09772 32069 ft 418 kts 286°
2026-05-09 11:20 45.88997 19.05944 32052 ft 419 kts 298°
2026-05-09 11:21 45.90644 19.02506 32058 ft 420 kts 307°
2026-05-09 11:21 45.92806 18.99421 32044 ft 424 kts 319°
2026-05-09 11:21 45.95156 18.96847 32066 ft 424 kts 318°
2026-05-09 11:22 45.99638 18.91329 32053 ft 424 kts 315°
2026-05-09 11:22 46.04020 18.85626 32038 ft 425 kts 313°
2026-05-09 11:23 46.07908 18.79256 32073 ft 422 kts 306°
2026-05-09 11:23 46.11542 18.72537 32131 ft 422 kts 305°
2026-05-09 11:24 46.15201 18.65630 32151 ft 421 kts 304°
2026-05-09 11:24 46.18792 18.58825 32150 ft 419 kts 304°
2026-05-09 11:25 46.22334 18.52103 32145 ft 416 kts 304°
2026-05-09 11:25 46.25255 18.46548 32117 ft 414 kts 304°
2026-05-09 11:26 46.28781 18.39839 32073 ft 412 kts 304°
2026-05-09 11:26 46.32283 18.33161 32062 ft 411 kts 304°
2026-05-09 11:27 46.35715 18.26605 32066 ft 411 kts 304°
2026-05-09 11:27 46.39200 18.19947 32065 ft 412 kts 304°
2026-05-09 11:28 46.42673 18.13309 32064 ft 414 kts 304°
2026-05-09 11:28 46.46164 18.06630 32068 ft 416 kts 304°
2026-05-09 11:29 46.49685 17.99888 32121 ft 416 kts 304°
2026-05-09 11:29 46.53187 17.93193 32151 ft 416 kts 304°
2026-05-09 11:30 46.56679 17.86510 32155 ft 414 kts 304°
2026-05-09 11:30 46.60275 17.79790 32135 ft 414 kts 310°
2026-05-09 11:30 46.62479 17.77058 32088 ft 420 kts 323°
2026-05-09 11:31 46.65165 17.75143 32072 ft 427 kts 334°
2026-05-09 11:31 46.70849 17.72334 32076 ft 428 kts 336°
2026-05-09 11:32 46.76481 17.69477 32067 ft 428 kts 335°
2026-05-09 11:32 46.82176 17.66350 32070 ft 428 kts 334°
2026-05-09 11:33 46.87818 17.63324 32071 ft 430 kts 335°
2026-05-09 11:33 46.96294 17.58820 32076 ft 432 kts 335°
2026-05-09 11:34 47.01938 17.55778 32132 ft 433 kts 335°
2026-05-09 11:34 47.07589 17.52737 32154 ft 433 kts 335°
2026-05-09 11:35 47.13250 17.49688 32159 ft 433 kts 335°
2026-05-09 11:35 47.18910 17.46629 32158 ft 432 kts 335°
2026-05-09 11:36 47.24516 17.43590 32125 ft 433 kts 334°
2026-05-09 11:36 47.30212 17.40496 32083 ft 433 kts 334°
2026-05-09 11:37 47.35867 17.37421 32070 ft 433 kts 334°
2026-05-09 11:37 47.41553 17.34320 32069 ft 432 kts 334°
2026-05-09 11:38 47.47128 17.31273 32069 ft 432 kts 334°
2026-05-09 11:38 47.52807 17.28160 32066 ft 432 kts 334°
2026-05-09 11:39 47.58416 17.25079 32072 ft 433 kts 334°
2026-05-09 11:40 47.66193 17.20800 32124 ft 433 kts 334°
2026-05-09 11:41 47.78087 17.14220 32166 ft 433 kts 334°
2026-05-09 11:41 47.83385 17.10176 32163 ft 421 kts 318°
2026-05-09 11:42 47.86813 17.05002 32173 ft 413 kts 306°
2026-05-09 11:42 47.90887 16.97291 32156 ft 413 kts 305°
2026-05-09 11:43 47.93926 16.91721 32168 ft 413 kts 306°
2026-05-09 11:43 47.97709 16.84942 32172 ft 412 kts 306°
2026-05-09 11:44 48.01319 16.78355 32176 ft 410 kts 305°
2026-05-09 11:44 48.04931 16.71721 32172 ft 408 kts 305°
2026-05-09 11:45 48.08501 16.65182 32131 ft 407 kts 305°
2026-05-09 11:45 48.12066 16.58634 32095 ft 405 kts 305°
2026-05-09 11:46 48.15624 16.52073 32099 ft 405 kts 305°
2026-05-09 11:46 48.19201 16.45468 32101 ft 406 kts 305°
2026-05-09 11:47 48.22754 16.38891 32097 ft 407 kts 305°
2026-05-09 11:47 48.26350 16.32214 32105 ft 409 kts 305°
2026-05-09 11:48 48.29234 16.26849 32147 ft 409 kts 305°
2026-05-09 11:48 48.32807 16.20194 32195 ft 409 kts 305°
2026-05-09 11:49 48.36378 16.13523 32192 ft 407 kts 305°
2026-05-09 11:49 48.39916 16.06893 32192 ft 404 kts 304°
2026-05-09 11:50 48.43410 16.00328 32173 ft 401 kts 304°
2026-05-09 11:50 48.45986 15.95480 32143 ft 399 kts 304°
2026-05-09 11:51 48.49480 15.88883 32161 ft 406 kts 304°
2026-05-09 11:51 48.53027 15.82175 32157 ft 409 kts 305°
2026-05-09 11:52 48.56610 15.75389 32160 ft 409 kts 305°
2026-05-09 11:52 48.60148 15.68664 32166 ft 410 kts 305°
2026-05-09 11:53 48.63712 15.61877 32192 ft 413 kts 305°
2026-05-09 11:53 48.67284 15.55051 32206 ft 415 kts 305°
2026-05-09 11:54 48.70838 15.48243 32203 ft 415 kts 305°
2026-05-09 11:54 48.74440 15.41335 32203 ft 414 kts 305°
2026-05-09 11:55 48.78023 15.34432 32173 ft 414 kts 305°
2026-05-09 11:56 48.88677 15.13819 32120 ft 414 kts 305°
2026-05-09 11:57 48.92181 15.06794 32120 ft 415 kts 303°
2026-05-09 11:57 48.95629 14.99717 32120 ft 417 kts 303°
2026-05-09 11:58 48.99066 14.92657 32120 ft 419 kts 304°
2026-05-09 11:58 49.02548 14.85494 32123 ft 420 kts 303°
2026-05-09 11:59 49.06022 14.78321 32126 ft 422 kts 303°
2026-05-09 11:59 49.09515 14.71094 32174 ft 423 kts 304°
2026-05-09 12:00 49.12999 14.63860 32219 ft 423 kts 304°
2026-05-09 12:00 49.16434 14.56711 32217 ft 424 kts 304°
2026-05-09 12:01 49.19979 14.49321 32191 ft 425 kts 304°
2026-05-09 12:01 49.23471 14.42017 32150 ft 426 kts 304°
2026-05-09 12:02 49.26950 14.34716 32139 ft 427 kts 304°
2026-05-09 12:02 49.30455 14.27347 32143 ft 428 kts 304°
2026-05-09 12:03 49.33970 14.19937 32136 ft 429 kts 304°
2026-05-09 12:03 49.37469 14.12524 32132 ft 431 kts 304°
2026-05-09 12:04 49.40986 14.05071 32141 ft 432 kts 304°
2026-05-09 12:04 49.44508 13.97582 32162 ft 432 kts 304°
2026-05-09 12:05 49.48027 13.90072 32128 ft 434 kts 304°
2026-05-09 12:05 49.51554 13.82529 32156 ft 434 kts 304°
2026-05-09 12:06 49.55055 13.75018 32206 ft 434 kts 304°
2026-05-09 12:06 49.57998 13.68690 32220 ft 434 kts 304°
2026-05-09 12:07 49.62087 13.59869 32220 ft 435 kts 304°
2026-05-09 12:07 49.65608 13.52251 32218 ft 434 kts 304°
2026-05-09 12:08 49.69105 13.44662 32215 ft 433 kts 304°
2026-05-09 12:08 49.72576 13.37115 32203 ft 432 kts 304°
2026-05-09 12:09 49.75402 13.30950 32168 ft 431 kts 304°
2026-05-09 12:09 49.79506 13.21965 32124 ft 431 kts 304°
2026-05-09 12:10 49.85839 13.08052 32127 ft 431 kts 304°
2026-05-09 12:11 49.89849 12.99198 32130 ft 432 kts 304°
2026-05-09 12:11 49.92740 12.92799 32170 ft 432 kts 304°
2026-05-09 12:12 49.96162 12.85215 32216 ft 431 kts 304°
2026-05-09 12:12 49.99601 12.77553 32211 ft 432 kts 304°
2026-05-09 12:13 50.03054 12.69847 32189 ft 432 kts 306°
2026-05-09 12:13 50.06466 12.62221 32146 ft 432 kts 306°
2026-05-09 12:14 50.09916 12.54470 32123 ft 433 kts 306°
2026-05-09 12:14 50.12621 12.46084 32136 ft 435 kts 293°
2026-05-09 12:15 50.14729 12.37305 32118 ft 436 kts 292°
2026-05-09 12:15 50.16890 12.28468 32121 ft 437 kts 293°
2026-05-09 12:16 50.19138 12.19638 32147 ft 437 kts 293°
2026-05-09 12:16 50.21339 12.10789 32191 ft 437 kts 292°
2026-05-09 12:17 50.23518 12.01928 32183 ft 437 kts 292°
2026-05-09 12:17 50.25704 11.93071 32181 ft 438 kts 292°
2026-05-09 12:18 50.27888 11.84182 32220 ft 437 kts 292°
2026-05-09 12:18 50.30045 11.75362 32213 ft 437 kts 292°
2026-05-09 12:19 50.32215 11.66455 32218 ft 437 kts 292°
2026-05-09 12:19 50.34388 11.57490 32214 ft 437 kts 292°
2026-05-09 12:20 50.36534 11.48611 32207 ft 437 kts 292°
2026-05-09 12:20 50.38700 11.39608 32174 ft 437 kts 292°
2026-05-09 12:21 50.40853 11.30608 32161 ft 436 kts 294°
2026-05-09 12:21 50.42976 11.21730 32120 ft 437 kts 294°
2026-05-09 12:22 50.45127 11.12673 32123 ft 437 kts 293°
2026-05-09 12:22 50.47245 11.03722 32138 ft 438 kts 293°
2026-05-09 12:23 50.49355 10.94767 32188 ft 437 kts 293°
2026-05-09 12:23 50.51485 10.85693 32209 ft 437 kts 293°
2026-05-09 12:24 50.53583 10.76722 32204 ft 437 kts 293°
2026-05-09 12:24 50.55674 10.67735 32200 ft 437 kts 293°
2026-05-09 12:25 50.57755 10.58753 32189 ft 437 kts 293°
2026-05-09 12:25 50.59823 10.49794 32159 ft 437 kts 293°
2026-05-09 12:26 50.61890 10.40799 32151 ft 436 kts 293°
2026-05-09 12:26 50.63968 10.31724 32119 ft 437 kts 293°
2026-05-09 12:27 50.66021 10.22709 32116 ft 437 kts 292°
2026-05-09 12:27 50.68066 10.13689 32136 ft 436 kts 292°
2026-05-09 12:28 50.70095 10.04714 32127 ft 437 kts 292°
2026-05-09 12:28 50.72124 9.95692 32130 ft 437 kts 292°
2026-05-09 12:29 50.74151 9.86643 32127 ft 437 kts 292°
2026-05-09 12:29 50.76186 9.77521 32150 ft 437 kts 292°
2026-05-09 12:30 50.78195 9.68479 32148 ft 437 kts 292°
2026-05-09 12:30 50.81231 9.54723 32195 ft 437 kts 291°
2026-05-09 12:31 50.83899 9.42574 32193 ft 437 kts 291°
2026-05-09 12:32 50.85897 9.33418 32191 ft 437 kts 291°
2026-05-09 12:32 50.87873 9.24328 32177 ft 436 kts 291°
2026-05-09 12:33 50.89843 9.15225 32135 ft 437 kts 291°
2026-05-09 12:33 50.91817 9.06054 32135 ft 437 kts 290°
2026-05-09 12:34 50.93778 8.96915 32127 ft 437 kts 290°
2026-05-09 12:34 50.95743 8.87726 32130 ft 437 kts 290°
2026-05-09 12:35 50.97642 8.78781 32133 ft 437 kts 290°
2026-05-09 12:35 50.99606 8.69489 32178 ft 436 kts 290°
2026-05-09 12:36 51.02203 8.60798 32124 ft 434 kts 307°
2026-05-09 12:36 51.04196 8.57195 32106 ft 432 kts 318°
2026-05-09 12:36 51.06592 8.54307 32115 ft 431 kts 327°
2026-05-09 12:37 51.11704 8.49221 32103 ft 432 kts 328°
2026-05-09 12:37 51.16795 8.44013 32114 ft 433 kts 327°
2026-05-09 12:38 51.21821 8.38673 32127 ft 433 kts 326°
2026-05-09 12:38 51.26842 8.33418 32187 ft 433 kts 327°
2026-05-09 12:39 51.31972 8.28059 32199 ft 433 kts 327°
2026-05-09 12:39 51.37003 8.22757 32072 ft 433 kts 326°
2026-05-09 12:39 51.39513 8.20105 31654 ft 432 kts 326°
2026-05-09 12:40 51.42031 8.17451 31117 ft 431 kts 326°
2026-05-09 12:40 51.44518 8.14832 30509 ft 431 kts 326°
2026-05-09 12:40 51.46961 8.12092 29789 ft 431 kts 319°
2026-05-09 12:40 51.48910 8.08293 28955 ft 432 kts 298°
2026-05-09 12:41 51.49855 8.03869 28228 ft 433 kts 279°
2026-05-09 12:41 51.49858 7.98709 27369 ft 436 kts 263°
2026-05-09 12:41 51.49180 7.93953 26547 ft 438 kts 253°
2026-05-09 12:41 51.48546 7.90706 25974 ft 439 kts 253°
2026-05-09 12:42 51.47684 7.86041 25126 ft 441 kts 255°
2026-05-09 12:42 51.46854 7.81236 24220 ft 443 kts 255°
2026-05-09 12:42 51.46060 7.76533 23337 ft 444 kts 255°
2026-05-09 12:42 51.45241 7.71781 22432 ft 443 kts 254°
2026-05-09 12:43 51.44393 7.67047 21529 ft 436 kts 253°
2026-05-09 12:43 51.43546 7.62444 20637 ft 430 kts 253°
2026-05-09 12:43 51.42702 7.57871 19785 ft 420 kts 253°
2026-05-09 12:43 51.42017 7.53395 19200 ft 405 kts 262°
2026-05-09 12:44 51.41873 7.48892 19059 ft 379 kts 269°
2026-05-09 12:44 51.41913 7.44773 18896 ft 362 kts 271°
2026-05-09 12:44 51.41997 7.40805 18433 ft 352 kts 271°
2026-05-09 12:44 51.42068 7.36896 17658 ft 351 kts 270°
2026-05-09 12:45 51.42104 7.32990 16784 ft 352 kts 269°
2026-05-09 12:45 51.42114 7.29065 15904 ft 352 kts 269°
2026-05-09 12:45 51.42117 7.25105 15021 ft 351 kts 269°
2026-05-09 12:45 51.42119 7.21178 14141 ft 350 kts 268°
2026-05-09 12:46 51.41748 7.17325 13217 ft 347 kts 249°
2026-05-09 12:46 51.40542 7.14033 12324 ft 343 kts 228°
2026-05-09 12:46 51.38907 7.11360 11519 ft 340 kts 224°
2026-05-09 12:46 51.37096 7.08647 10613 ft 338 kts 223°
2026-05-09 12:47 51.35360 7.06009 9736 ft 337 kts 224°
2026-05-09 12:47 51.33685 7.03338 8976 ft 332 kts 225°
2026-05-09 12:47 51.32071 7.00649 8267 ft 328 kts 226°
2026-05-09 12:47 51.30495 6.97989 7557 ft 322 kts 226°
2026-05-09 12:48 51.28955 6.95419 6860 ft 317 kts 225°
2026-05-09 12:48 51.27435 6.92915 6167 ft 311 kts 225°
2026-05-09 12:48 51.25931 6.90455 5466 ft 306 kts 225°
2026-05-09 12:48 51.24462 6.88039 4768 ft 301 kts 225°
2026-05-09 12:49 51.23017 6.85658 4183 ft 294 kts 225°
2026-05-09 12:49 51.21586 6.83308 3966 ft 278 kts 225°
2026-05-09 12:49 51.20274 6.81047 3956 ft 263 kts 230°
2026-05-09 12:49 51.19137 6.78756 3963 ft 257 kts 232°
2026-05-09 12:50 51.18068 6.76434 3968 ft 257 kts 233°
2026-05-09 12:50 51.17369 6.74922 3969 ft 257 kts 233°
2026-05-09 12:50 51.16297 6.72675 3971 ft 257 kts 231°
2026-05-09 12:50 51.15157 6.70342 3971 ft 257 kts 232°
2026-05-09 12:51 51.14058 6.68049 3971 ft 257 kts 232°
2026-05-09 12:51 51.12991 6.65806 3969 ft 253 kts 232°
2026-05-09 12:51 51.12070 6.63508 3837 ft 245 kts 248°
2026-05-09 12:51 51.11810 6.60875 3624 ft 242 kts 276°
2026-05-09 12:52 51.12332 6.58355 3423 ft 242 kts 303°
2026-05-09 12:52 51.13511 6.56500 3222 ft 239 kts 330°
2026-05-09 12:52 51.15020 6.55411 3041 ft 231 kts 340°
2026-05-09 12:52 51.16503 6.54559 2953 ft 222 kts 343°
2026-05-09 12:53 51.18054 6.54346 2929 ft 217 kts 16°
2026-05-09 12:53 51.19286 6.55534 2939 ft 207 kts 51°
2026-05-09 12:53 51.20105 6.57351 2996 ft 198 kts 57°
2026-05-09 12:53 51.20884 6.59129 2744 ft 198 kts 55°
2026-05-09 12:54 51.21720 6.60934 2418 ft 198 kts 54°
2026-05-09 12:54 51.22565 6.62722 2118 ft 192 kts 54°
2026-05-09 12:54 51.23314 6.64283 1911 ft 177 kts 53°
2026-05-09 12:54 51.24035 6.65790 1656 ft 163 kts 53°
2026-05-09 12:55 51.24697 6.67178 1420 ft 150 kts 52°
2026-05-09 12:55 51.25307 6.68457 1231 ft 145 kts 51°
2026-05-09 12:55 51.25912 6.69724 1029 ft 144 kts 51°
2026-05-09 12:55 51.26562 6.71064 812 ft 140 kts 51°
2026-05-09 12:56 51.27164 6.72321 645 ft 147 kts 52°
2026-05-09 12:56 51.27779 6.73651 437 ft 150 kts 51°
2026-05-09 12:56 51.28422 6.74984 231 ft 150 kts 52°
2026-05-09 12:56 51.29038 6.76274 162 ft 136 kts 53°
2026-05-09 12:57 51.29435 6.77095 161 ft 48 kts 53°
2026-05-09 12:57 51.29576 6.77479 161 ft 31 kts 72°
2026-05-09 12:57 51.29591 6.77663 161 ft 8 kts 92°
2026-05-09 12:57 51.29587 6.77704 161 ft 4 kts 110°
2026-05-09 12:58 51.29571 6.77763 161 ft 8 kts 113°
2026-05-09 12:58 51.29535 6.77847 161 ft 11 kts 131°
2026-05-09 12:58 51.29486 6.77921 161 ft 5 kts 139°
2026-05-09 12:58 51.29448 6.77967 161 ft 9 kts 145°
2026-05-09 12:59 51.29391 6.78033 161 ft 12 kts 143°
2026-05-09 12:59 51.29316 6.78122 161 ft 15 kts 142°
2026-05-09 12:59 51.29238 6.78202 161 ft 12 kts 164°
2026-05-09 12:59 51.29162 6.78185 161 ft 6 kts 224°
2026-05-09 13:00 51.29128 6.78116 161 ft 10 kts 233°
2026-05-09 13:00 51.29078 6.78010 161 ft 14 kts 232°
2026-05-09 13:00 51.29007 6.77862 161 ft 17 kts 232°
2026-05-09 13:00 51.28928 6.77697 161 ft 20 kts 232°
2026-05-09 13:01 51.28844 6.77521 161 ft 21 kts 232°
2026-05-09 13:01 51.28751 6.77325 161 ft 24 kts 233°
2026-05-09 13:01 51.28646 6.77104 162 ft 26 kts 233°
2026-05-09 13:01 51.28531 6.76863 161 ft 26 kts 234°
2026-05-09 13:02 51.28446 6.76686 161 ft 19 kts 231°
2026-05-09 13:02 51.28357 6.76503 161 ft 22 kts 233°
2026-05-09 13:02 51.28261 6.76290 161 ft 25 kts 233°
2026-05-09 13:02 51.28149 6.76058 161 ft 25 kts 232°
2026-05-09 13:03 51.28079 6.75915 161 ft 17 kts 233°
2026-05-09 13:03 51.28041 6.75850 161 ft 6 kts 205°
2026-05-09 13:03 51.27989 6.75825 161 ft 10 kts 184°
2026-05-09 13:03 51.27911 6.75821 161 ft 13 kts 180°
2026-05-09 13:04 51.27810 6.75818 161 ft 16 kts 181°
2026-05-09 13:04 51.27773 6.75817 161 ft 1 kts 181°
2026-05-09 13:04 51.27752 6.75816 161 ft 3 kts 181°
2026-05-09 13:04 51.27735 6.75835 161 ft 4 kts 121°
2026-05-09 13:05 51.27725 6.75895 161 ft 7 kts 97°
2026-05-09 13:05 51.27721 6.75983 161 ft 7 kts 92°
2026-05-09 13:05 51.27684 6.76031 161 ft 8 kts 171°
2026-05-09 13:05 51.27650 6.76047 161 ft 4 kts 124°
2026-05-09 13:06 51.27647 6.76067 161 ft 2 kts 91°
2026-05-09 13:06 51.27648 6.76106 161 ft 2 kts 82°
2026-05-09 13:06 51.27652 6.76139 161 ft 0 kts 79°
2026-05-09 13:06 51.27653 6.76149 161 ft 1 kts 79°
2026-05-09 13:07 51.27655 6.76164 161 ft 0 kts 79°